Location: Lawrence
(38.9720°N, 95.2350°W)
Time: 23:55:21
(UTC-05:00)

Amateur Radio Satellites - All Passes

Search period start: 30 September 2016 23:25
Search period end: 01 October 2016 23:25
Location: Lawrence, 38.9720°N, 95.2350°W

Satellite Date Start Highest point End Downlink Frequencies (MHz)
Time Altitude Azimuth
ESTCUBE 1 30 Sep 23:27:14 23:31:24 37° 71° (ENE) 23:35:34 437.505/2401.250
HUMSAT D 30 Sep 23:29:58 23:33:31 28° 264° (W) 23:37:07 437.325/437.525
SPROUT 30 Sep 23:35:49 23:37:11 11° 63° (ENE) 23:38:32 437.525
ANTELSAT 30 Sep 23:37:30 23:41:58 78° 101° (E) 23:46:31 437.575/2403.000
AUBIESAT-1 30 Sep 23:38:32 23:40:47 15° 63° (ENE) 23:42:58 437.475
POPSAT HIP 1 30 Sep 23:51:17 23:53:00 12° 91° (E) 23:54:43 437.405
UKube-1 30 Sep 23:55:10 23:58:00 17° 66° (ENE) 00:00:51 .
TIGRISAT 30 Sep 23:57:08 00:01:32 67° 285° (WNW) 00:06:02 435.000
RS-15 01 Oct 00:02:37 00:11:15 21° 344° (NNW) 00:20:05 29.354- 29.394
NANOSAT C BR1 01 Oct 00:04:19 00:07:03 17° 93° (E) 00:09:49 145.865
AISAT 01 Oct 00:05:05 00:09:22 49° 73° (ENE) 00:13:40 437.250
SO-50 01 Oct 00:07:27 00:12:03 81° 60° (ENE) 00:16:29 436.795
M-CUBED/EXP-1 PRIME 01 Oct 00:17:02 00:21:01 54° 70° (ENE) 00:24:43 437.505
BEESAT 2 01 Oct 00:21:45 00:24:36 19° 111° (ESE) 00:27:27 435.950
ISS 01 Oct 00:24:23 00:25:47 12° 15° (NNE) 00:27:12 145.825
DX 1 01 Oct 00:28:43 00:32:58 53° 73° (ENE) 00:37:14 434.975-435.025
QB50P2 01 Oct 00:30:03 00:34:01 38° 98° (E) 00:37:58 145.880/145.840
POLYITAN 1 01 Oct 00:32:13 00:36:11 38° 99° (E) 00:40:08 437.675
SRMSAT 01 Oct 00:33:44 00:34:57 11° 185° (S) 00:36:10 437.500
JAS-2 01 Oct 00:35:26 00:42:46 42° 96° (E) 00:49:36 435.910
UNISAT 6 01 Oct 00:39:39 00:43:08 23° 292° (WNW) 00:46:39 437.425
TISAT 1 01 Oct 00:43:26 00:45:11 12° 64° (ENE) 00:46:57 437.305
CUBEBUG 1 01 Oct 00:43:42 00:47:59 49° 260° (W) 00:52:16 437.445
50 SAT 01 Oct 00:44:57 00:48:31 56° 260° (W) 00:52:08 437.505
VELOX 1 01 Oct 00:48:17 00:52:39 57° 259° (W) 00:57:03 145.980
BUGSAT 1 01 Oct 00:54:01 00:57:11 22° 95° (E) 01:00:21 437.445
BEESAT 3 01 Oct 00:55:28 00:59:21 78° 301° (WNW) 01:03:17 437.485
Cosmos 2491 01 Oct 00:55:55 01:02:16 21° 65° (ENE) 01:08:32 435.465 / 435.565
ESTCUBE 1 01 Oct 01:05:00 01:08:17 20° 266° (W) 01:11:35 437.505/2401.250
DUCHIFAT 1 01 Oct 01:05:01 01:09:14 82° 104° (ESE) 01:13:26 145.980
SPROUT 01 Oct 01:08:21 01:12:34 62° 259° (W) 01:16:48 437.525
QB50P1 01 Oct 01:11:00 01:15:12 74° 285° (WNW) 01:19:25 145.935-145.965
AUBIESAT-1 01 Oct 01:11:15 01:15:00 38° 256° (WSW) 01:18:32 437.475
ANTELSAT 01 Oct 01:17:48 01:18:03 10° 298° (WNW) 01:18:19 437.575/2403.000
POPSAT HIP 1 01 Oct 01:24:58 01:29:03 51° 286° (WNW) 01:33:09 437.405
UKube-1 01 Oct 01:29:39 01:33:43 40° 261° (W) 01:37:48 .
NANOSAT C BR1 01 Oct 01:39:02 01:42:54 36° 288° (WNW) 01:46:46 145.865
AISAT 01 Oct 01:43:42 01:46:05 14° 268° (W) 01:48:29 437.250
YUBILEINY 01 Oct 01:54:25 02:00:11 20° 79° (E) 02:05:56 435.215
M-CUBED/EXP-1 PRIME 01 Oct 01:54:51 01:55:41 11° 262° (W) 01:56:31 437.505
BEESAT 2 01 Oct 01:58:34 02:02:10 33° 307° (NW) 02:05:48 435.950
ISS 01 Oct 01:59:48 02:02:58 43° 34° (NNE) 02:06:07 145.825
Gurwin Techsat 1B 01 Oct 02:06:29 02:08:59 13° 90° (E) 02:11:30 435.225
QB50P2 01 Oct 02:06:45 02:09:30 17° 294° (WNW) 02:12:16 145.880/145.840
DX 1 01 Oct 02:07:30 02:09:26 13° 268° (W) 02:11:24 434.975-435.025
POLYITAN 1 01 Oct 02:08:54 02:11:40 17° 294° (WNW) 02:14:26 437.675
TISAT 1 01 Oct 02:16:16 02:20:21 54° 259° (W) 02:24:28 437.305
Oscar 19 01 Oct 02:18:32 02:23:19 38° 98° (E) 02:28:03 437.125/150
JAS-2 01 Oct 02:20:27 02:27:37 41° 294° (WNW) 02:34:25 435.910
RS-15 01 Oct 02:20:49 02:30:08 24° 21° (NNE) 02:39:25 29.354- 29.394
BUGSAT 1 01 Oct 02:29:10 02:32:31 26° 290° (WNW) 02:35:53 437.445
ITUPSAT 1 01 Oct 02:39:17 02:43:49 46° 71° (ENE) 02:48:23 437.325
SWISSCUBE 01 Oct 02:50:12 02:54:55 69° 75° (ENE) 02:59:41 437.505
Cosmos 2491 01 Oct 02:51:14 03:00:06 80° 265° (W) 03:08:53 435.465 / 435.565
BEESAT 01 Oct 03:02:45 03:07:30 83° 77° (ENE) 03:12:17 436.000
PCSat 01 Oct 03:12:15 03:15:54 19° 105° (ESE) 03:19:33 145.827
AIST 2 01 Oct 03:12:45 03:16:40 47° 116° (ESE) 03:20:39 435.215
ITAMSAT 1 01 Oct 03:20:14 03:23:47 18° 93° (E) 03:27:19 435.822/435.867
ISS 01 Oct 03:36:50 03:39:13 19° 229° (SW) 03:41:36 145.825
Gurwin Techsat 1B 01 Oct 03:44:07 03:49:25 70° 286° (WNW) 03:54:42 435.225
YUBILEINY 01 Oct 03:47:05 03:55:53 80° 277° (W) 04:04:41 435.215
AO-7 01 Oct 03:52:52 03:59:18 24° 94° (E) 04:05:42 29.400- 29.500
MOZHAYETS 4 01 Oct 03:58:04 04:02:28 51° 73° (ENE) 04:06:56
KKS-1 01 Oct 03:58:10 04:02:07 32° 70° (ENE) 04:06:05 437.445
Oscar 19 01 Oct 03:58:17 04:02:24 25° 294° (WNW) 04:06:30 437.125/150
ITUPSAT 1 01 Oct 04:18:44 04:21:52 17° 267° (W) 04:25:00 437.325
STARS 01 Oct 04:22:14 04:25:56 28° 69° (ENE) 04:29:40 437.465
Cosmos 2504 01 Oct 04:22:17 04:29:36 71° 94° (E) 04:36:44 435.465 / 435.565
SWISSCUBE 01 Oct 04:31:41 04:33:09 11° 270° (W) 04:34:38 437.505
RS-15 01 Oct 04:33:55 04:46:09 59° 51° (NE) 04:58:04 29.354- 29.394
Cosmos 2491 01 Oct 04:51:26 04:55:23 14° 285° (WNW) 04:59:20 435.465 / 435.565
AIST 2 01 Oct 04:52:38 04:55:24 17° 314° (NW) 04:58:13 435.215
PCSat 01 Oct 04:53:29 04:58:48 56° 302° (WNW) 05:04:09 145.827
CUSAT 1 01 Oct 04:56:59 05:01:41 18° 60° (ENE) 05:05:54 437.405
ITAMSAT 1 01 Oct 04:58:27 05:03:31 51° 289° (WNW) 05:08:33 435.822/435.867
AIST 1 01 Oct 04:59:33 05:03:26 32° 90° (E) 05:07:19
DANDE 01 Oct 05:19:37 05:23:43 14° 58° (ENE) 05:27:39 436.750
CUBESAT XI-V 01 Oct 05:27:17 05:31:55 59° 74° (ENE) 05:36:33 437.345
KKS-1 01 Oct 05:35:17 05:38:42 22° 265° (W) 05:42:08 437.445
MOZHAYETS 4 01 Oct 05:37:27 05:39:55 14° 269° (W) 05:42:25
AO-7 01 Oct 05:44:24 05:52:38 69° 292° (WNW) 06:00:50 29.400- 29.500
AO-85 01 Oct 05:48:46 05:52:53 68° 57° (ENE) 05:56:45 145.980
YUBILEINY 01 Oct 05:49:30 05:54:10 15° 299° (WNW) 05:58:52 435.215
STARS 01 Oct 05:58:40 06:02:14 24° 264° (W) 06:05:49 437.465
Cosmos 2504 01 Oct 06:18:46 06:23:38 19° 293° (WNW) 06:28:28 435.465 / 435.565
STRAND 1 01 Oct 06:23:13 06:25:13 12° 60° (ENE) 06:27:12 437.568
CUSAT 1 01 Oct 06:37:23 06:44:54 84° 263° (W) 06:50:52 437.405
AIST 1 01 Oct 06:37:52 06:41:04 20° 287° (WNW) 06:44:16
BRITE-PL 01 Oct 06:42:59 06:47:34 56° 99° (E) 06:51:49 437.365/2234.400
HORYU 2 01 Oct 06:46:07 06:50:34 76° 285° (WNW) 06:55:02 437.375
RS-15 01 Oct 06:47:03 06:58:15 44° 253° (WSW) 07:09:13 29.354- 29.394
NOAA 15 01 Oct 06:56:00 07:00:47 33° 97° (E) 07:05:31 137.62
NOAA 18 01 Oct 06:56:56 07:01:07 22° 94° (E) 07:05:17 137.9125
DANDE 01 Oct 06:59:46 07:08:10 68° 78° (ENE) 07:15:35 436.750
CUBESAT XI-V 01 Oct 07:07:28 07:09:38 13° 269° (W) 07:11:50 437.345
LilacSat-2 01 Oct 07:16:24 07:20:06 44° 99° (E) 07:23:48 437.200
O/OREOS (USA 219) 01 Oct 07:20:00 07:24:33 88° 290° (WNW) 07:29:11 437.305
CUTE-I 01 Oct 07:24:05 07:29:19 51° 100° (E) 07:34:31 437.470
Cubesat XI-IV 01 Oct 07:25:08 07:30:22 52° 100° (E) 07:35:35 437.490
Cosmos 2499 01 Oct 07:29:09 07:29:52 10° 77° (ENE) 07:30:35 435.465 / 435.565
AO-7 01 Oct 07:39:43 07:43:54 15° 311° (NW) 07:48:06 29.400- 29.500
GOMX 1 01 Oct 07:51:31 07:55:47 61° 285° (WNW) 07:59:52 467.674
DOVE 4 01 Oct 07:53:56 07:58:01 53° 100° (E) 08:02:04 437.250
CANX-2 01 Oct 07:56:05 07:57:06 11° 90° (E) 07:58:05 2200.000
STRAND 1 01 Oct 07:58:34 08:03:40 81° 256° (WSW) 08:08:49 437.568
GONETS M04 01 Oct 08:11:07 08:18:57 37° 86° (E) 08:26:49
CUSAT 1 01 Oct 08:22:32 08:25:18 13° 284° (WNW) 08:27:54 437.405
BRITE-PL 01 Oct 08:23:13 08:25:27 13° 298° (WNW) 08:27:37 437.365/2234.400
PRISM 01 Oct 08:26:22 08:29:03 17° 66° (ENE) 08:31:43 437.425
NOAA 15 01 Oct 08:35:55 08:40:25 29° 293° (WNW) 08:44:54 137.62
NOAA 18 01 Oct 08:36:45 08:41:57 46° 290° (WNW) 08:47:10 137.9125
HO-68 01 Oct 08:37:16 08:43:48 37° 98° (E) 08:50:18 435.675
CINEMA 3 01 Oct 08:38:30 08:42:30 41° 99° (E) 08:46:36 145.822/145.860
BEESAT 2 01 Oct 08:41:33 08:42:40 11° 42° (NE) 08:43:48 435.950
DANDE 01 Oct 08:43:44 08:50:08 26° 277° (W) 08:56:02 436.750
PHONESAT 2.4 01 Oct 08:45:15 08:46:47 13° 147° (SSE) 08:48:19 2401.200-2431.200
COMPASS 1 01 Oct 08:46:48 08:49:32 17° 93° (E) 08:52:16 437.405
LilacSat-2 01 Oct 08:52:19 08:53:59 12° 294° (WNW) 08:55:39 437.200
CUTE-I 01 Oct 09:05:08 09:08:56 20° 296° (WNW) 09:12:46 437.470
Cubesat XI-IV 01 Oct 09:06:13 09:10:01 20° 296° (WNW) 09:13:49 437.490
BEESAT 3 01 Oct 09:13:41 09:17:27 39° 54° (NE) 09:21:10 437.485
Cosmos 2499 01 Oct 09:14:33 09:21:40 80° 95° (E) 09:28:45 435.465 / 435.565
CUBEBUG 2 01 Oct 09:20:41 09:24:37 32° 97° (E) 09:28:38 437.445
SEEDS 01 Oct 09:21:21 09:25:36 64° 101° (E) 09:29:48 437.485
CUTE 1.7 + AOD 2 01 Oct 09:26:58 09:31:17 74° 283° (WNW) 09:35:32 437.475
CANX-2 01 Oct 09:29:03 09:33:18 60° 285° (WNW) 09:37:32 2200.000
UWE-3 01 Oct 09:30:53 09:34:40 28° 96° (E) 09:38:30 435.000/436.395/437.385
AAUSAT CUBESAT 2 01 Oct 09:33:00 09:37:02 44° 99° (E) 09:41:01 437.432
DOVE 4 01 Oct 09:33:44 09:35:14 12° 296° (WNW) 09:36:46 437.250
Oscar 11 01 Oct 09:42:42 09:46:07 22° 94° (E) 09:49:30 145.826/435.025
ZACube-1 01 Oct 09:51:33 09:55:24 29° 97° (E) 09:59:18 437.345
PRISM 01 Oct 10:00:07 10:04:01 38° 261° (W) 10:07:57 437.425
UNISAT 6 01 Oct 10:00:51 10:04:13 23° 69° (ENE) 10:07:37 437.425
GONETS M04 01 Oct 10:07:09 10:15:31 46° 285° (WNW) 10:23:58
CINEMA 3 01 Oct 10:16:47 10:19:20 16° 293° (WNW) 10:21:55 145.822/145.860
BEESAT 2 01 Oct 10:17:01 10:21:03 86° 239° (WSW) 10:25:03 435.950
PHONESAT 2.4 01 Oct 10:19:36 10:22:30 63° 161° (SSE) 10:25:23 2401.200-2431.200
DELFI C3 01 Oct 10:20:52 10:23:59 22° 95° (E) 10:27:06 145.870
COMPASS 1 01 Oct 10:21:19 10:25:13 37° 288° (WNW) 10:29:04 437.405
HO-68 01 Oct 10:24:56 10:31:29 41° 295° (WNW) 10:38:02 435.675
ANTELSAT 01 Oct 10:35:09 10:39:19 56° 74° (ENE) 10:43:29 437.575/2403.000
FUNcube-1 01 Oct 10:43:01 10:47:24 77° 284° (WNW) 10:51:51 145.935
JAS-2 01 Oct 10:48:00 10:52:11 17° 55° (NE) 10:56:34 435.910
BEESAT 3 01 Oct 10:52:13 10:54:47 17° 250° (WSW) 10:57:19 437.485
TIGRISAT 01 Oct 10:54:29 10:58:43 90° 134° (SE) 11:03:00 435.000
NANOSAT C BR1 01 Oct 10:56:53 10:58:16 11° 64° (ENE) 10:59:38 145.865
CUBEBUG 2 01 Oct 10:57:46 11:01:03 21° 291° (WNW) 11:04:23 437.445
SEEDS 01 Oct 10:59:32 11:00:43 11° 296° (WNW) 11:01:54 437.485
UWE-3 01 Oct 11:07:26 11:11:00 25° 291° (WNW) 11:14:37 435.000/436.395/437.385
AAUSAT CUBESAT 2 01 Oct 11:09:45 11:12:06 15° 294° (WNW) 11:14:26 437.432
Cosmos 2499 01 Oct 11:11:30 11:15:38 16° 295° (WNW) 11:19:47 435.465 / 435.565
HUMSAT D 01 Oct 11:13:40 11:17:47 46° 99° (E) 11:21:55 437.325/437.525
Oscar 11 01 Oct 11:18:25 11:22:14 30° 290° (WNW) 11:26:03 145.826/435.025
QB50P2 01 Oct 11:21:47 11:25:13 25° 69° (ENE) 11:28:40 145.880/145.840
POLYITAN 1 01 Oct 11:23:58 11:27:23 25° 69° (ENE) 11:30:49 437.675
ZACube-1 01 Oct 11:28:03 11:31:32 24° 291° (WNW) 11:35:04 437.345
AIST 2 01 Oct 11:35:22 11:38:48 24° 49° (NE) 11:42:14 435.215
UNISAT 6 01 Oct 11:37:12 11:40:49 27° 264° (W) 11:44:28 437.425
BUGSAT 1 01 Oct 11:43:42 11:45:51 14° 66° (ENE) 11:48:00 437.445
DELFI C3 01 Oct 11:55:25 11:58:46 26° 290° (WNW) 12:02:06 145.870
DUCHIFAT 1 01 Oct 11:55:27 11:59:28 48° 73° (ENE) 12:03:30 145.980
PHONESAT 2.4 01 Oct 11:55:42 11:58:36 61° 358° (N) 12:01:31 2401.200-2431.200
PCSat 01 Oct 12:00:40 12:03:40 15° 43° (NE) 12:06:39 145.827
QB50P1 01 Oct 12:01:51 12:06:01 68° 75° (ENE) 12:10:11 145.935-145.965
ANTELSAT 01 Oct 12:15:14 12:16:22 11° 269° (W) 12:17:31 437.575/2403.000
50 SAT 01 Oct 12:15:33 12:16:54 12° 92° (E) 12:18:14 437.505
POPSAT HIP 1 01 Oct 12:15:45 12:19:56 83° 257° (WSW) 12:24:09 437.405
NANOSAT C BR1 01 Oct 12:29:20 12:33:27 59° 259° (WSW) 12:37:37 145.865
JAS-2 01 Oct 12:29:23 12:35:58 88° 76° (ENE) 12:43:27 435.910
CUBEBUG 1 01 Oct 12:33:35 12:37:28 31° 97° (E) 12:41:18 437.445
VELOX 1 01 Oct 12:39:51 12:43:38 28° 96° (E) 12:47:24 145.980
HUMSAT D 01 Oct 12:50:33 12:53:01 15° 294° (WNW) 12:55:29 437.325/437.525
SPROUT 01 Oct 12:55:52 12:59:17 23° 95° (E) 13:02:41 437.525
ESTCUBE 1 01 Oct 12:57:05 13:01:38 85° 284° (WNW) 13:06:08 437.505/2401.250
QB50P2 01 Oct 12:57:27 13:00:56 25° 264° (W) 13:04:25 145.880/145.840
POLYITAN 1 01 Oct 12:59:38 13:03:06 25° 264° (W) 13:06:34 437.675
AIST 2 01 Oct 13:13:33 13:17:20 32° 245° (WSW) 13:21:04 435.215
BUGSAT 1 01 Oct 13:16:56 13:20:51 44° 261° (W) 13:24:45 437.445
UKube-1 01 Oct 13:17:46 13:21:42 34° 98° (E) 13:25:36 .
Gurwin Techsat 1B 01 Oct 13:25:55 13:29:45 21° 64° (ENE) 13:33:35 435.225
M-CUBED/EXP-1 PRIME 01 Oct 13:31:26 13:34:33 41° 105° (ESE) 13:37:44 437.505
PHONESAT 2.4 01 Oct 13:31:50 13:34:46 81° 195° (SSW) 13:37:42 2401.200-2431.200
AISAT 01 Oct 13:32:32 13:36:54 69° 285° (WNW) 13:41:13 437.250
DUCHIFAT 1 01 Oct 13:33:38 13:35:24 12° 268° (W) 13:37:12 145.980
Oscar 19 01 Oct 13:33:59 13:38:58 50° 72° (ENE) 13:43:59 437.125/150
PCSat 01 Oct 13:42:23 13:47:51 88° 63° (ENE) 13:53:16 145.827
50 SAT 01 Oct 13:47:08 13:50:33 38° 287° (WNW) 13:53:57 437.505
DX 1 01 Oct 13:53:57 13:58:17 68° 285° (WNW) 14:02:34 434.975-435.025
Cosmos 2491 01 Oct 13:56:26 14:03:04 25° 81° (E) 14:09:42 435.465 / 435.565
YUBILEINY 01 Oct 13:58:59 14:07:21 49° 76° (ENE) 14:15:40 435.215
TISAT 1 01 Oct 14:01:40 14:05:02 23° 96° (E) 14:08:23 437.305
CUBEBUG 1 01 Oct 14:10:16 14:13:32 21° 293° (WNW) 14:16:47 437.445
Cosmos 2504 01 Oct 14:15:53 14:21:39 23° 70° (ENE) 14:27:39 435.465 / 435.565
VELOX 1 01 Oct 14:16:25 14:19:58 25° 292° (WNW) 14:23:30 145.980
JAS-2 01 Oct 14:18:28 14:22:04 15° 275° (W) 14:25:51 435.910
SO-50 01 Oct 14:20:18 14:24:41 35° 114° (ESE) 14:29:03 436.795
AUBIESAT-1 01 Oct 14:24:53 14:28:00 39° 291° (WNW) 14:31:11 437.475
SPROUT 01 Oct 14:31:34 14:35:10 27° 290° (WNW) 14:38:46 437.525
ITAMSAT 1 01 Oct 14:36:55 14:41:06 26° 66° (ENE) 14:45:18 435.822/435.867
ITUPSAT 1 01 Oct 14:42:44 14:44:54 13° 91° (E) 14:47:03 437.325
AO-7 01 Oct 14:50:39 14:57:44 33° 59° (ENE) 15:04:48 29.400- 29.500
SWISSCUBE 01 Oct 14:52:29 14:55:54 19° 94° (E) 14:59:18 437.505
UKube-1 01 Oct 14:54:22 14:57:30 20° 293° (WNW) 15:00:37 .
Gurwin Techsat 1B 01 Oct 15:04:11 15:09:18 49° 260° (W) 15:14:28 435.225
BEESAT 01 Oct 15:04:41 15:08:29 23° 95° (E) 15:12:14 436.000
PHONESAT 2.4 01 Oct 15:08:24 15:10:34 19° 210° (SSW) 15:12:45 2401.200-2431.200
Oscar 19 01 Oct 15:14:58 15:18:32 19° 267° (W) 15:22:07 437.125/150
PCSat 01 Oct 15:29:09 15:30:24 11° 258° (WSW) 15:31:40 145.827
TISAT 1 01 Oct 15:37:09 15:40:37 26° 291° (WNW) 15:44:05 437.305
Cosmos 2491 01 Oct 15:50:20 15:59:04 67° 280° (W) 16:07:53 435.465 / 435.565
O/OREOS (USA 219) 01 Oct 15:53:23 15:56:04 15° 55° (NE) 15:58:45 437.305
MOZHAYETS 4 01 Oct 15:55:54 15:58:08 13° 91° (E) 16:00:22
YUBILEINY 01 Oct 15:56:17 16:03:48 34° 275° (W) 16:11:19 435.215
SO-50 01 Oct 16:01:02 16:05:12 28° 311° (NW) 16:09:21 436.795
Cosmos 2504 01 Oct 16:08:02 16:15:30 66° 267° (W) 16:23:30 435.465 / 435.565
ITAMSAT 1 01 Oct 16:15:36 16:20:21 37° 262° (W) 16:25:09 435.822/435.867
ITUPSAT 1 01 Oct 16:18:21 16:23:07 62° 286° (WNW) 16:27:51 437.325
SWISSCUBE 01 Oct 16:29:19 16:33:51 42° 289° (WNW) 16:38:21 437.505
AO-7 01 Oct 16:41:56 16:50:03 57° 257° (WSW) 16:58:13 29.400- 29.500
BEESAT 01 Oct 16:41:58 16:46:18 35° 290° (WNW) 16:50:38 436.000
AIST 1 01 Oct 16:44:37 16:48:55 90° 173° (S) 16:53:09
GOMX 1 01 Oct 17:22:11 17:24:51 14° 64° (ENE) 17:27:28 467.674
KKS-1 01 Oct 17:26:01 17:30:27 77° 101° (ESE) 17:34:52 437.445
CUBESAT XI-V 01 Oct 17:26:20 17:29:13 16° 92° (E) 17:32:05 437.345
MOZHAYETS 4 01 Oct 17:31:04 17:35:38 56° 286° (WNW) 17:40:10
O/OREOS (USA 219) 01 Oct 17:31:21 17:35:51 56° 253° (WSW) 17:40:19 437.305
HORYU 2 01 Oct 17:42:36 17:47:01 85° 74° (ENE) 17:51:26 437.375
STARS 01 Oct 17:48:06 17:52:26 63° 101° (ESE) 17:56:46 437.465
BRITE-PL 01 Oct 17:50:54 17:56:30 61° 74° (ENE) 18:01:57 437.365/2234.400
Cosmos 2491 01 Oct 17:54:37 17:57:47 12° 302° (WNW) 18:00:58 435.465 / 435.565
CUSAT 1 01 Oct 17:56:21 18:00:38 18° 79° (E) 18:05:18 437.405
LilacSat-2 01 Oct 17:57:59 18:00:39 19° 69° (ENE) 18:03:20 437.200
NOAA 15 01 Oct 18:14:40 18:19:45 48° 71° (ENE) 18:24:52 137.62
NOAA 18 01 Oct 18:21:47 18:26:47 38° 68° (ENE) 18:31:47 137.9125
GONETS M04 01 Oct 18:23:47 18:29:00 17° 62° (ENE) 18:34:09
ISS 01 Oct 18:39:21 18:42:00 23° 132° (SE) 18:44:41 145.825
CUTE-I 01 Oct 18:44:41 18:49:57 75° 75° (ENE) 18:55:17 437.470
Cubesat XI-IV 01 Oct 18:45:55 18:51:12 76° 75° (ENE) 18:56:32 437.490
RS-15 01 Oct 18:56:13 19:06:28 39° 106° (ESE) 19:17:09 29.354- 29.394
GOMX 1 01 Oct 18:57:03 19:02:23 72° 258° (WSW) 19:07:28 467.674
DOVE 4 01 Oct 18:57:30 19:02:16 50° 74° (ENE) 19:06:46 437.250
CUBESAT XI-V 01 Oct 19:02:21 19:06:50 47° 288° (WNW) 19:11:16 437.345
HO-68 01 Oct 19:05:30 19:11:07 26° 60° (ENE) 19:16:43 435.675
Cosmos 2499 01 Oct 19:06:18 19:12:33 26° 71° (ENE) 19:19:07 435.465 / 435.565
STARS 01 Oct 19:26:38 19:28:14 12° 297° (WNW) 19:29:50 437.465
BRITE-PL 01 Oct 19:31:33 19:35:15 18° 269° (W) 19:38:54 437.365/2234.400
LilacSat-2 01 Oct 19:31:35 19:34:46 26° 264° (W) 19:37:59 437.200
CUSAT 1 01 Oct 19:34:51 19:41:24 82° 280° (W) 19:49:17 437.405
COMPASS 1 01 Oct 19:38:37 19:39:16 10° 63° (ENE) 19:39:54 437.405
CINEMA 3 01 Oct 19:39:06 19:43:02 33° 72° (ENE) 19:46:52 145.822/145.860
NOAA 15 01 Oct 19:55:56 19:59:45 20° 267° (W) 20:03:36 137.62
AO-85 01 Oct 20:01:03 20:05:45 34° 114° (ESE) 20:10:14 145.980
NOAA 18 01 Oct 20:02:56 20:07:29 27° 264° (W) 20:12:03 137.9125
DANDE 01 Oct 20:05:22 20:10:46 73° 95° (E) 20:17:55 436.750
STRAND 1 01 Oct 20:10:27 20:15:14 38° 98° (E) 20:20:00 437.568
SEEDS 01 Oct 20:11:45 20:15:36 36° 72° (ENE) 20:19:30 437.485
ISS 01 Oct 20:15:22 20:18:22 34° 329° (NNW) 20:21:24 145.825
CUTE 1.7 + AOD 2 01 Oct 20:17:59 20:22:11 64° 75° (ENE) 20:26:25 437.475
CUBEBUG 2 01 Oct 20:18:18 20:21:33 22° 69° (ENE) 20:24:47 437.445
GONETS M04 01 Oct 20:18:21 20:27:13 85° 83° (E) 20:35:57
CANX-2 01 Oct 20:20:05 20:24:19 80° 78° (ENE) 20:28:36 2200.000
AAUSAT CUBESAT 2 01 Oct 20:22:13 20:25:38 25° 70° (ENE) 20:29:06 437.432
UWE-3 01 Oct 20:27:37 20:30:30 19° 68° (ENE) 20:33:24 435.000/436.395/437.385
CUTE-I 01 Oct 20:28:26 20:30:32 12° 270° (W) 20:32:39 437.470
Cubesat XI-IV 01 Oct 20:29:48 20:31:48 12° 270° (W) 20:33:50 437.490
DOVE 4 01 Oct 20:37:08 20:40:08 16° 267° (W) 20:43:02 437.250
Oscar 11 01 Oct 20:37:10 20:39:42 15° 65° (ENE) 20:42:15 145.826/435.025
ZACube-1 01 Oct 20:47:01 20:49:58 19° 68° (ENE) 20:52:55 437.345
HO-68 01 Oct 20:51:14 20:58:17 62° 258° (WSW) 21:05:24 435.675
Cosmos 2499 01 Oct 20:58:28 21:06:02 61° 268° (W) 21:14:11 435.465 / 435.565
RS-15 01 Oct 21:06:48 21:18:18 62° 308° (NW) 21:30:26 29.354- 29.394
DELFI C3 01 Oct 21:07:11 21:08:36 12° 65° (ENE) 21:10:02 145.870
COMPASS 1 01 Oct 21:10:04 21:14:13 67° 259° (W) 21:18:26 437.405
CINEMA 3 01 Oct 21:17:02 21:20:13 19° 265° (W) 21:23:21 145.822/145.860
CUSAT 1 01 Oct 21:20:46 21:24:50 16° 301° (WNW) 21:29:14 437.405
JUGNU 01 Oct 21:27:10 21:28:46 11° 183° (S) 21:30:23 437.505
FUNcube-1 01 Oct 21:37:13 21:41:19 68° 75° (ENE) 21:45:26 145.935
AO-85 01 Oct 21:41:37 21:46:12 32° 309° (NW) 21:50:33 145.980
PRISM 01 Oct 21:42:49 21:46:25 28° 97° (E) 21:49:58 437.425
SEEDS 01 Oct 21:48:39 21:51:25 17° 267° (W) 21:54:13 437.485
STRAND 1 01 Oct 21:50:03 21:54:11 25° 294° (WNW) 21:58:20 437.568
DANDE 01 Oct 21:50:35 21:54:39 18° 300° (WNW) 21:59:20 436.750
CUBEBUG 2 01 Oct 21:54:30 21:58:03 26° 264° (W) 22:01:34 437.445
ISS 01 Oct 21:54:36 21:55:38 11° 348° (NNW) 21:56:39 145.825
AAUSAT CUBESAT 2 01 Oct 21:57:38 22:01:01 24° 265° (W) 22:04:28 437.432
UWE-3 01 Oct 22:03:00 22:06:44 32° 263° (W) 22:10:29 435.000/436.395/437.385
HUMSAT D 01 Oct 22:04:03 22:07:28 26° 70° (ENE) 22:10:56 437.325/437.525
Oscar 11 01 Oct 22:11:19 22:15:27 45° 261° (W) 22:19:36 145.826/435.025
GONETS M04 01 Oct 22:17:25 22:22:48 18° 282° (WNW) 22:28:08
ZACube-1 01 Oct 22:22:21 22:26:02 31° 263° (W) 22:29:45 437.345
ANTELSAT 01 Oct 22:29:15 22:31:28 13° 92° (E) 22:33:42 437.575/2403.000
SRMSAT 01 Oct 22:32:28 22:33:44 11° 176° (S) 22:35:00 437.500
DELFI C3 01 Oct 22:39:02 22:42:56 53° 260° (W) 22:46:53 145.870
TIGRISAT 01 Oct 22:47:32 22:50:52 20° 94° (E) 22:54:15 435.000
SO-50 01 Oct 22:53:01 22:56:46 24° 47° (NE) 23:00:25 436.795
PRISM 01 Oct 23:18:25 23:21:33 21° 292° (WNW) 23:24:38 437.425
